Time,TemperatureF,DewpointF,PressureIn,WindDirection,WindDirectionDegrees,WindSpeedMPH,WindSpeedGustMPH,Humidity,HourlyPrecipIn,Conditions,Clouds,dailyrainin,SolarRadiationWatts/m^2,SoftwareType,DateUTC
2013-10-13 00:00:00,63.7,60.1,30.08,NE,46,0.0,4.0,88,0.00,,SCT,0.00,0.0,WeatherDisplay:10.37,2013-10-13 04:00:00,
2013-10-13 00:05:00,63.6,60.0,30.08,NE,46,0.0,4.0,88,0.00,,SCT,0.00,0.0,WeatherDisplay:10.37,2013-10-13 04:05:00,
2013-10-13 00:10:00,63.6,60.0,30.08,NE,46,0.0,1.0,88,0.00,,SCT,0.00,0.0,WeatherDisplay:10.37,2013-10-13 04:10:00,
2013-10-13 00:15:00,63.6,60.3,30.08,NE,46,1.0,3.0,89,0.00,,SCT,0.00,0.0,WeatherDisplay:10.37,2013-10-13 04:15:00,
2013-10-13 00:20:00,63.5,60.2,30.08,NE,46,1.0,4.0,89,0.00,,SCT,0.00,0.0,WeatherDisplay:10.37,2013-10-13 04:20:00,
2013-10-13 00:25:00,63.5,60.2,30.08,NE,46,0.0,2.0,89,0.00,,SCT,0.00,0.0,WeatherDisplay:10.37,2013-10-13 04:25:00,
2013-10-13 00:30:00,63.5,60.2,30.08,NE,46,0.0,1.0,89,0.00,,SCT,0.00,0.0,WeatherDisplay:10.37,2013-10-13 04:30:00,
2013-10-13 00:35:00,63.5,60.2,30.08,NE,46,1.0,2.0,89,0.00,,SCT,0.00,0.0,WeatherDisplay:10.37,2013-10-13 04:35:00,
2013-10-13 00:40:00,63.4,60.1,30.09,NE,46,0.0,1.0,89,0.00,,SCT,0.00,0.0,WeatherDisplay:10.37,2013-10-13 04:40:00,
2013-10-13 00:45:00,63.4,60.1,30.09,NE,46,0.0,3.0,89,0.00,,SCT,0.00,0.0,WeatherDisplay:10.37,2013-10-13 04:45:00,
2013-10-13 00:50:00,63.4,60.1,30.09,NE,46,0.0,3.0,89,0.00,,SCT,0.00,0.0,WeatherDisplay:10.37,2013-10-13 04:50:00,
2013-10-13 00:55:00,63.4,60.1,30.09,NE,46,1.0,3.0,89,0.00,,SCT,0.00,0.0,WeatherDisplay:10.37,2013-10-13 04:55:00,
2013-10-13 01:00:00,63.4,60.1,30.09,NE,46,0.0,3.0,89,0.00,,SCT,0.00,0.0,WeatherDisplay:10.37,2013-10-13 05:00:00,
2013-10-13 01:05:00,63.3,60.0,30.09,NE,46,1.0,5.0,89,0.00,,SCT,0.00,0.0,WeatherDisplay:10.37,2013-10-13 05:05:00,
2013-10-13 01:10:00,63.3,60.0,30.09,NE,44,1.0,6.0,89,0.00,,SCT,0.00,0.0,WeatherDisplay:10.37,2013-10-13 05:10:00,
2013-10-13 01:15:00,63.2,59.9,30.09,NE,41,2.0,5.0,89,0.00,,SCT,0.00,0.0,WeatherDisplay:10.37,2013-10-13 05:15:00,
2013-10-13 01:20:00,63.2,59.6,30.09,NE,41,2.0,4.0,88,0.00,,SCT,0.00,0.0,WeatherDisplay:10.37,2013-10-13 05:20:00,
2013-10-13 01:25:00,63.2,59.6,30.09,NE,43,0.0,5.0,88,0.00,,SCT,0.00,0.0,WeatherDisplay:10.37,2013-10-13 05:25:00,
2013-10-13 01:30:00,63.1,59.5,30.09,NE,44,1.0,4.0,88,0.00,,SCT,0.00,0.0,WeatherDisplay:10.37,2013-10-13 05:30:00,
2013-10-13 01:35:00,63.1,59.5,30.09,NE,44,0.0,2.0,88,0.00,,SCT,0.00,0.0,WeatherDisplay:10.37,2013-10-13 05:35:00,
2013-10-13 01:40:00,63.1,59.5,30.10,NE,44,0.0,3.0,88,0.00,,SCT,0.00,0.0,WeatherDisplay:10.37,2013-10-13 05:40:00,
2013-10-13 01:50:00,63.0,59.4,30.10,NE,44,3.0,5.0,88,0.00,,SCT,0.00,0.0,WeatherDisplay:10.37,2013-10-13 05:50:00,
2013-10-13 01:55:00,63.0,59.4,30.10,NE,44,1.0,3.0,88,0.00,,SCT,0.00,0.0,WeatherDisplay:10.37,2013-10-13 05:55:00,
2013-10-13 02:00:00,63.0,59.4,30.10,NE,43,1.0,5.0,88,0.00,,SCT,0.00,0.0,WeatherDisplay:10.37,2013-10-13 06:00:00,
2013-10-13 02:05:00,62.9,59.3,30.10,NE,43,2.0,5.0,88,0.00,,SCT,0.00,0.0,WeatherDisplay:10.37,2013-10-13 06:05:00,
2013-10-13 02:10:00,62.9,59.3,30.10,NE,43,2.0,6.0,88,0.00,,SCT,0.00,0.0,WeatherDisplay:10.37,2013-10-13 06:10:00,
2013-10-13 02:15:00,62.9,59.3,30.10,NE,44,1.0,6.0,88,0.00,,SCT,0.00,0.0,WeatherDisplay:10.37,2013-10-13 06:15:00,
2013-10-13 02:20:00,62.9,59.3,30.10,NE,46,1.0,4.0,88,0.00,,SCT,0.00,0.0,WeatherDisplay:10.37,2013-10-13 06:20:00,
2013-10-13 02:25:00,62.8,59.2,30.10,NE,45,0.0,3.0,88,0.00,,SCT,0.00,0.0,WeatherDisplay:10.37,2013-10-13 06:25:00,
2013-10-13 02:35:00,62.8,59.2,30.10,NE,46,2.0,6.0,88,0.00,,SCT,0.00,0.0,WeatherDisplay:10.37,2013-10-13 06:35:00,
2013-10-13 02:40:00,62.7,59.1,30.10,NE,46,2.0,6.0,88,0.00,,SCT,0.00,0.0,WeatherDisplay:10.37,2013-10-13 06:40:00,
2013-10-13 02:45:00,62.7,59.1,30.10,NE,47,1.0,5.0,88,0.00,,SCT,0.00,0.0,WeatherDisplay:10.37,2013-10-13 06:45:00,
2013-10-13 02:50:00,62.6,59.0,30.10,NE,47,1.0,4.0,88,0.00,,SCT,0.00,0.0,WeatherDisplay:10.37,2013-10-13 06:50:00,
2013-10-13 02:55:00,62.6,59.0,30.11,NE,47,0.0,2.0,88,0.00,,SCT,0.00,0.0,WeatherDisplay:10.37,2013-10-13 06:55:00,
2013-10-13 03:00:00,62.6,59.0,30.10,NE,47,1.0,4.0,88,0.00,,SCT,0.00,0.0,WeatherDisplay:10.37,2013-10-13 07:00:00,
2013-10-13 03:05:00,62.5,58.9,30.11,NE,47,1.0,4.0,88,0.00,,SCT,0.00,0.0,WeatherDisplay:10.37,2013-10-13 07:05:00,
2013-10-13 03:10:00,62.4,58.8,30.11,NE,47,2.0,6.0,88,0.00,,SCT,0.00,0.0,WeatherDisplay:10.37,2013-10-13 07:10:00,
2013-10-13 03:20:00,62.3,58.7,30.11,NE,46,3.0,5.0,88,0.00,,SCT,0.00,0.0,WeatherDisplay:10.37,2013-10-13 07:20:00,
2013-10-13 03:25:00,62.3,58.4,30.11,NE,45,2.0,6.0,87,0.00,,SCT,0.00,0.0,WeatherDisplay:10.37,2013-10-13 07:25:00,
2013-10-13 03:30:00,62.2,58.3,30.11,NE,45,0.0,2.0,87,0.00,,SCT,0.00,0.0,WeatherDisplay:10.37,2013-10-13 07:30:00,
2013-10-13 03:35:00,62.2,58.3,30.11,NE,45,0.0,2.0,87,0.00,,SCT,0.00,0.0,WeatherDisplay:10.37,2013-10-13 07:35:00,
2013-10-13 03:40:00,62.2,58.6,30.11,NE,45,0.0,3.0,88,0.00,,SCT,0.00,0.0,WeatherDisplay:10.37,2013-10-13 07:40:00,
2013-10-13 03:45:00,62.2,58.6,30.11,NE,45,0.0,3.0,88,0.00,,SCT,0.00,0.0,WeatherDisplay:10.37,2013-10-13 07:45:00,
2013-10-13 03:50:00,62.1,58.5,30.11,NE,45,0.0,3.0,88,0.00,,SCT,0.00,0.0,WeatherDisplay:10.37,2013-10-13 07:50:00,
2013-10-13 03:55:00,62.1,58.5,30.11,NE,45,1.0,3.0,88,0.00,,SCT,0.00,0.0,WeatherDisplay:10.37,2013-10-13 07:55:00,
2013-10-13 04:00:00,62.1,58.5,30.10,NE,45,1.0,4.0,88,0.00,,SCT,0.00,0.0,WeatherDisplay:10.37,2013-10-13 08:00:00,
2013-10-13 04:05:00,62.0,58.4,30.10,NE,45,0.0,3.0,88,0.00,,SCT,0.00,0.0,WeatherDisplay:10.37,2013-10-13 08:05:00,
2013-10-13 04:10:00,62.0,58.4,30.10,NE,45,0.0,2.0,88,0.00,,SCT,0.00,0.0,WeatherDisplay:10.37,2013-10-13 08:10:00,
2013-10-13 04:15:00,61.9,58.3,30.10,NE,45,1.0,2.0,88,0.00,,SCT,0.00,0.0,WeatherDisplay:10.37,2013-10-13 08:15:00,
2013-10-13 04:20:00,61.8,58.2,30.10,NE,45,1.0,2.0,88,0.00,,SCT,0.00,0.0,WeatherDisplay:10.37,2013-10-13 08:20:00,
2013-10-13 04:25:00,61.7,58.1,30.10,NE,45,0.0,3.0,88,0.00,,SCT,0.00,0.0,WeatherDisplay:10.37,2013-10-13 08:25:00,
2013-10-13 04:30:00,61.6,58.0,30.10,NE,45,2.0,3.0,88,0.00,,SCT,0.00,0.0,WeatherDisplay:10.37,2013-10-13 08:30:00,
2013-10-13 04:35:00,61.6,58.3,30.10,NE,45,1.0,4.0,89,0.00,,SCT,0.00,0.0,WeatherDisplay:10.37,2013-10-13 08:35:00,
2013-10-13 04:40:00,61.5,58.2,30.10,NE,45,0.0,3.0,89,0.00,,SCT,0.00,0.0,WeatherDisplay:10.37,2013-10-13 08:40:00,
2013-10-13 04:50:00,61.4,58.1,30.10,NE,45,1.0,3.0,89,0.00,,SCT,0.00,0.0,WeatherDisplay:10.37,2013-10-13 08:50:00,
2013-10-13 04:55:00,61.3,58.0,30.10,NE,45,1.0,3.0,89,0.00,,SCT,0.00,0.0,WeatherDisplay:10.37,2013-10-13 08:55:00,
2013-10-13 05:00:00,61.3,58.0,30.10,NE,45,0.0,3.0,89,0.00,,SCT,0.00,0.0,WeatherDisplay:10.37,2013-10-13 09:00:00,
2013-10-13 05:05:00,61.2,57.9,30.10,NE,45,0.0,3.0,89,0.00,,SCT,0.00,0.0,WeatherDisplay:10.37,2013-10-13 09:05:00,
2013-10-13 05:10:00,61.2,58.2,30.10,NE,45,0.0,3.0,90,0.00,,SCT,0.00,0.0,WeatherDisplay:10.37,2013-10-13 09:10:00,
2013-10-13 05:20:00,61.1,58.1,30.10,NE,45,1.0,4.0,90,0.00,,SCT,0.00,0.0,WeatherDisplay:10.37,2013-10-13 09:20:00,
2013-10-13 05:25:00,61.1,58.1,30.11,NE,45,0.0,4.0,90,0.00,,SCT,0.00,0.0,WeatherDisplay:10.37,2013-10-13 09:25:00,
2013-10-13 05:30:00,61.1,58.1,30.11,NE,45,1.0,3.0,90,0.00,,SCT,0.00,0.0,WeatherDisplay:10.37,2013-10-13 09:30:00,
2013-10-13 05:35:00,61.1,58.1,30.11,NE,45,1.0,3.0,90,0.00,,SCT,0.00,0.0,WeatherDisplay:10.37,2013-10-13 09:35:00,
2013-10-13 05:40:00,61.1,58.1,30.11,NE,45,1.0,2.0,90,0.00,,SCT,0.00,0.0,WeatherDisplay:10.37,2013-10-13 09:40:00,
2013-10-13 05:45:00,61.1,58.1,30.11,NE,45,0.0,1.0,90,0.00,,SCT,0.00,0.0,WeatherDisplay:10.37,2013-10-13 09:45:00,
2013-10-13 05:50:00,61.1,58.1,30.12,NE,45,0.0,1.0,90,0.00,,SCT,0.00,0.0,WeatherDisplay:10.37,2013-10-13 09:50:00,
2013-10-13 05:55:00,61.0,58.0,30.12,NE,45,0.0,0.0,90,0.00,,SCT,0.00,0.0,WeatherDisplay:10.37,2013-10-13 09:55:00,
2013-10-13 06:00:00,61.0,58.4,30.12,NE,45,0.0,2.0,91,0.00,,SCT,0.00,0.0,WeatherDisplay:10.37,2013-10-13 10:00:00,
2013-10-13 06:05:00,60.9,58.3,30.12,NE,45,0.0,3.0,91,0.00,,SCT,0.00,0.0,WeatherDisplay:10.37,2013-10-13 10:05:00,
2013-10-13 06:10:00,60.9,58.3,30.12,NE,45,0.0,2.0,91,0.00,,SCT,0.00,0.0,WeatherDisplay:10.37,2013-10-13 10:10:00,
2013-10-13 06:15:00,60.9,58.2,30.12,NE,45,0.0,2.0,91,0.00,,SCT,0.00,0.0,WeatherDisplay:10.37,2013-10-13 10:15:00,
2013-10-13 06:20:00,60.8,58.2,30.12,NE,45,0.0,3.0,91,0.00,,SCT,0.00,0.0,WeatherDisplay:10.37,2013-10-13 10:20:00,
2013-10-13 06:25:00,60.8,58.2,30.12,NE,45,0.0,2.0,91,0.00,,SCT,0.00,0.0,WeatherDisplay:10.37,2013-10-13 10:25:00,
2013-10-13 06:30:00,60.8,58.1,30.12,NE,45,0.0,2.0,91,0.00,,SCT,0.00,0.0,WeatherDisplay:10.37,2013-10-13 10:30:00,
2013-10-13 06:35:00,60.7,58.1,30.12,NE,45,0.0,2.0,91,0.00,,SCT,0.00,0.0,WeatherDisplay:10.37,2013-10-13 10:35:00,
2013-10-13 06:40:00,60.7,58.1,30.12,NE,45,0.0,2.0,91,0.00,,SCT,0.00,0.0,WeatherDisplay:10.37,2013-10-13 10:40:00,
2013-10-13 06:45:00,60.7,58.0,30.12,NE,45,0.0,1.0,91,0.00,,SCT,0.00,0.0,WeatherDisplay:10.37,2013-10-13 10:45:00,
2013-10-13 06:50:00,60.6,58.0,30.12,NE,45,0.0,2.0,91,0.00,,SCT,0.00,0.0,WeatherDisplay:10.37,2013-10-13 10:50:00,
2013-10-13 06:55:00,60.6,58.0,30.13,NE,45,0.0,1.0,91,0.00,,SCT,0.00,0.0,WeatherDisplay:10.37,2013-10-13 10:55:00,
2013-10-13 07:00:00,60.5,57.9,30.12,NE,45,1.0,2.0,91,0.00,,SCT,0.00,0.0,WeatherDisplay:10.37,2013-10-13 11:00:00,
2013-10-13 07:05:00,60.5,57.9,30.13,NE,45,0.0,2.0,91,0.00,,SCT,0.00,0.0,WeatherDisplay:10.37,2013-10-13 11:05:00,
2013-10-13 07:10:00,60.5,57.9,30.13,NE,45,0.0,2.0,91,0.00,,SCT,0.00,0.0,WeatherDisplay:10.37,2013-10-13 11:10:00,
2013-10-13 07:15:00,60.4,57.8,30.13,NE,45,0.0,2.0,91,0.00,,SCT,0.00,0.0,WeatherDisplay:10.37,2013-10-13 11:15:00,
2013-10-13 07:20:00,60.4,57.8,30.13,NE,45,0.0,1.0,91,0.00,,SCT,0.00,0.0,WeatherDisplay:10.37,2013-10-13 11:20:00,
2013-10-13 07:25:00,60.4,57.8,30.13,NE,45,0.0,1.0,91,0.00,,SCT,0.00,0.0,WeatherDisplay:10.37,2013-10-13 11:25:00,
2013-10-13 07:30:00,60.4,57.8,30.13,NE,45,0.0,1.0,91,0.00,,SCT,0.00,0.0,WeatherDisplay:10.37,2013-10-13 11:30:00,
2013-10-13 07:40:00,60.4,57.8,30.13,NE,45,0.0,2.0,91,0.00,,SCT,0.00,5.0,WeatherDisplay:10.37,2013-10-13 11:40:00,
2013-10-13 07:45:00,60.4,57.8,30.14,NE,45,0.0,3.0,91,0.00,,SCT,0.00,7.0,WeatherDisplay:10.37,2013-10-13 11:45:00,
2013-10-13 07:50:00,60.4,57.8,30.14,NE,45,0.0,2.0,91,0.00,,SCT,0.00,9.0,WeatherDisplay:10.37,2013-10-13 11:50:00,
2013-10-13 07:55:00,60.4,57.8,30.14,NE,45,1.0,3.0,91,0.00,,SCT,0.00,11.0,WeatherDisplay:10.37,2013-10-13 11:55:00,
2013-10-13 08:00:00,60.5,58.2,30.14,NE,45,1.0,3.0,92,0.00,BKN,SCT,0.00,21.0,WeatherDisplay:10.37,2013-10-13 12:00:00,
2013-10-13 08:05:00,60.5,58.2,30.14,NE,45,0.0,3.0,92,0.00,BKN,SCT,0.00,28.0,WeatherDisplay:10.37,2013-10-13 12:05:00,
2013-10-13 08:10:00,60.6,58.3,30.15,NE,45,2.0,4.0,92,0.00,BKN,SCT,0.00,30.0,WeatherDisplay:10.37,2013-10-13 12:10:00,
2013-10-13 08:15:00,60.6,58.3,30.15,NE,45,0.0,3.0,92,0.00,BKN,SCT,0.00,39.0,WeatherDisplay:10.37,2013-10-13 12:15:00,
2013-10-13 08:20:00,60.7,58.4,30.15,NE,45,1.0,2.0,92,0.00,SCT,SCT,0.00,53.0,WeatherDisplay:10.37,2013-10-13 12:20:00,
2013-10-13 08:25:00,60.7,58.4,30.15,NE,45,1.0,2.0,92,0.00,BKN,SCT,0.00,47.0,WeatherDisplay:10.37,2013-10-13 12:25:00,
2013-10-13 08:30:00,60.9,58.5,30.15,NE,45,1.0,4.0,92,0.00,BKN,SCT,0.00,42.0,WeatherDisplay:10.37,2013-10-13 12:30:00,
2013-10-13 08:35:00,60.9,58.6,30.16,NE,45,1.0,4.0,92,0.00,BKN,SCT,0.00,67.0,WeatherDisplay:10.37,2013-10-13 12:35:00,
2013-10-13 08:40:00,61.1,58.7,30.16,NE,45,0.0,2.0,92,0.00,BKN,SCT,0.00,79.0,WeatherDisplay:10.37,2013-10-13 12:40:00,
2013-10-13 08:45:00,61.2,58.9,30.16,NE,45,0.0,3.0,92,0.00,SCT,SCT,0.00,81.0,WeatherDisplay:10.37,2013-10-13 12:45:00,
2013-10-13 08:50:00,61.3,59.0,30.16,NE,45,0.0,2.0,92,0.00,BKN,SCT,0.00,76.0,WeatherDisplay:10.37,2013-10-13 12:50:00,
2013-10-13 08:55:00,61.4,59.1,30.16,NE,45,2.0,4.0,92,0.00,BKN,SCT,0.00,72.0,WeatherDisplay:10.37,2013-10-13 12:55:00,
2013-10-13 09:00:00,61.5,59.2,30.16,NE,45,1.0,4.0,92,0.00,BKN,SCT,0.00,81.0,WeatherDisplay:10.37,2013-10-13 13:00:00,
2013-10-13 09:05:00,61.6,59.3,30.16,NE,45,0.0,3.0,92,0.00,BKN,SCT,0.00,93.0,WeatherDisplay:10.37,2013-10-13 13:05:00,
2013-10-13 09:10:00,61.6,59.0,30.17,NE,45,2.0,5.0,91,0.00,BKN,SCT,0.00,121.0,WeatherDisplay:10.37,2013-10-13 13:10:00,
2013-10-13 09:15:00,61.8,59.5,30.17,NE,45,0.0,4.0,92,0.00,BKN,SCT,0.00,111.0,WeatherDisplay:10.37,2013-10-13 13:15:00,
2013-10-13 09:20:00,61.9,59.2,30.17,NE,45,2.0,5.0,91,0.00,BKN,SCT,0.00,134.0,WeatherDisplay:10.37,2013-10-13 13:20:00,
2013-10-13 09:25:00,62.0,59.3,30.17,NE,45,2.0,5.0,91,0.00,SCT,SCT,0.00,149.0,WeatherDisplay:10.37,2013-10-13 13:25:00,
2013-10-13 09:30:00,62.2,59.5,30.17,NE,45,2.0,5.0,91,0.00,SCT,SCT,0.00,135.0,WeatherDisplay:10.37,2013-10-13 13:30:00,
2013-10-13 09:35:00,62.2,59.5,30.17,NE,45,1.0,5.0,91,0.00,BKN,SCT,0.00,123.0,WeatherDisplay:10.37,2013-10-13 13:35:00,
2013-10-13 09:40:00,62.3,59.6,30.18,NE,45,2.0,5.0,91,0.00,BKN,SCT,0.00,125.0,WeatherDisplay:10.37,2013-10-13 13:40:00,
2013-10-13 09:45:00,62.4,59.8,30.18,NE,43,2.0,5.0,91,0.00,BKN,SCT,0.00,151.0,WeatherDisplay:10.37,2013-10-13 13:45:00,
2013-10-13 09:50:00,62.5,59.8,30.18,NE,38,3.0,8.0,91,0.00,BKN,SCT,0.00,186.0,WeatherDisplay:10.37,2013-10-13 13:50:00,
2013-10-13 09:55:00,62.7,59.7,30.18,NE,35,2.0,5.0,90,0.00,SCT,SCT,0.00,223.0,WeatherDisplay:10.37,2013-10-13 13:55:00,
2013-10-13 10:00:00,62.9,59.9,30.18,NE,36,3.0,5.0,90,0.00,SCT,SCT,0.00,213.0,WeatherDisplay:10.37,2013-10-13 14:00:00,
2013-10-13 10:05:00,63.1,60.1,30.18,NE,40,3.0,6.0,90,0.00,SCT,SCT,0.00,206.0,WeatherDisplay:10.37,2013-10-13 14:05:00,
2013-10-13 10:10:00,63.2,59.9,30.18,NE,43,2.0,8.0,89,0.00,SCT,SCT,0.00,178.0,WeatherDisplay:10.37,2013-10-13 14:10:00,
2013-10-13 10:15:00,63.4,59.8,30.18,NE,46,3.0,9.0,88,0.00,BKN,SCT,0.00,179.0,WeatherDisplay:10.37,2013-10-13 14:15:00,
2013-10-13 10:20:00,63.6,60.0,30.18,NE,46,2.0,7.0,88,0.00,SCT,SCT,0.00,251.0,WeatherDisplay:10.37,2013-10-13 14:20:00,
2013-10-13 10:25:00,63.9,60.3,30.18,NE,44,2.0,5.0,88,0.00,SCT,SCT,0.00,267.0,WeatherDisplay:10.37,2013-10-13 14:25:00,
2013-10-13 10:30:00,64.3,60.3,30.18,NE,46,2.0,9.0,87,0.00,SCT,SCT,0.00,207.0,WeatherDisplay:10.37,2013-10-13 14:30:00,
2013-10-13 10:35:00,64.6,60.3,30.18,NE,40,5.0,7.0,86,0.00,SCT,SCT,0.00,213.0,WeatherDisplay:10.37,2013-10-13 14:35:00,
2013-10-13 10:40:00,64.8,60.5,30.18,NE,38,3.0,9.0,86,0.00,BKN,SCT,0.00,213.0,WeatherDisplay:10.37,2013-10-13 14:40:00,
2013-10-13 10:45:00,65.1,60.1,30.19,NE,36,5.0,10.0,84,0.00,BKN,SCT,0.00,274.0,WeatherDisplay:10.37,2013-10-13 14:45:00,
2013-10-13 10:50:00,65.3,60.3,30.18,NE,42,5.0,12.0,84,0.00,SCT,SCT,0.00,218.0,WeatherDisplay:10.37,2013-10-13 14:50:00,
2013-10-13 11:00:00,65.6,60.3,30.18,NE,50,2.0,10.0,83,0.00,BKN,SCT,0.00,190.0,WeatherDisplay:10.37,2013-10-13 15:00:00,
2013-10-13 11:05:00,65.8,60.5,30.18,ENE,57,3.0,9.0,83,0.00,BKN,SCT,0.00,339.0,WeatherDisplay:10.37,2013-10-13 15:05:00,
2013-10-13 11:10:00,66.1,60.8,30.18,NE,35,3.0,12.0,83,0.00,BKN,SCT,0.00,250.0,WeatherDisplay:10.37,2013-10-13 15:10:00,
2013-10-13 11:15:00,66.3,60.7,30.18,NE,37,5.0,7.0,82,0.00,BKN,SCT,0.00,214.0,WeatherDisplay:10.37,2013-10-13 15:15:00,
2013-10-13 11:20:00,66.5,60.5,30.19,NE,43,3.0,9.0,81,0.00,BKN,SCT,0.00,283.0,WeatherDisplay:10.37,2013-10-13 15:20:00,
2013-10-13 11:30:00,66.8,60.8,30.18,NE,55,3.0,8.0,81,0.00,BKN,SCT,0.00,183.0,WeatherDisplay:10.37,2013-10-13 15:30:00,
2013-10-13 11:35:00,66.8,60.4,30.19,ENE,60,2.0,5.0,80,0.00,BKN,SCT,0.00,132.0,WeatherDisplay:10.37,2013-10-13 15:35:00,
2013-10-13 11:45:00,66.7,60.7,30.18,ENE,60,2.0,8.0,81,0.00,BKN,SCT,0.00,279.0,WeatherDisplay:10.37,2013-10-13 15:45:00,
2013-10-13 11:50:00,66.8,60.4,30.18,NE,52,5.0,8.0,80,0.00,BKN,SCT,0.00,127.0,WeatherDisplay:10.37,2013-10-13 15:50:00,
2013-10-13 11:55:00,66.8,60.4,30.18,NE,42,2.0,5.0,80,0.00,BKN,SCT,0.00,137.0,WeatherDisplay:10.37,2013-10-13 15:55:00,
2013-10-13 12:00:00,66.8,60.4,30.18,NE,43,2.0,6.0,80,0.00,OVC,SCT,0.00,185.0,WeatherDisplay:10.37,2013-10-13 16:00:00,
2013-10-13 12:05:00,66.8,60.8,30.18,NE,45,2.0,5.0,81,0.00,BKN,SCT,0.00,431.0,WeatherDisplay:10.37,2013-10-13 16:05:00,
2013-10-13 12:10:00,67.1,61.1,30.18,NE,48,2.0,6.0,81,0.00,SCT,SCT,0.00,418.0,WeatherDisplay:10.37,2013-10-13 16:10:00,
2013-10-13 12:15:00,67.5,60.8,30.18,NE,43,3.0,7.0,79,0.00,SCT,SCT,0.00,169.0,WeatherDisplay:10.37,2013-10-13 16:15:00,
2013-10-13 12:20:00,67.6,60.9,30.18,NE,45,5.0,6.0,79,0.00,BKN,SCT,0.00,158.0,WeatherDisplay:10.37,2013-10-13 16:20:00,
2013-10-13 12:25:00,67.7,60.6,30.18,NE,49,1.0,7.0,78,0.00,BKN,SCT,0.00,287.0,WeatherDisplay:10.37,2013-10-13 16:25:00,
2013-10-13 12:30:00,67.8,61.0,30.18,NE,46,3.0,6.0,79,0.00,BKN,SCT,0.00,322.0,WeatherDisplay:10.37,2013-10-13 16:30:00,
2013-10-13 12:35:00,68.0,60.9,30.18,NE,45,2.0,5.0,78,0.00,SCT,SCT,0.00,401.0,WeatherDisplay:10.37,2013-10-13 16:35:00,
2013-10-13 12:40:00,68.3,61.2,30.18,ENE,57,3.0,8.0,78,0.00,SCT,SCT,0.00,248.0,WeatherDisplay:10.37,2013-10-13 16:40:00,
2013-10-13 12:45:00,68.4,60.9,30.18,ENE,67,6.0,8.0,77,0.00,BKN,SCT,0.00,158.0,WeatherDisplay:10.37,2013-10-13 16:45:00,
2013-10-13 12:50:00,68.4,60.9,30.18,ENE,65,2.0,9.0,77,0.00,BKN,SCT,0.00,165.0,WeatherDisplay:10.37,2013-10-13 16:50:00,
2013-10-13 12:55:00,68.4,60.9,30.17,NE,52,2.0,8.0,77,0.00,BKN,SCT,0.00,299.0,WeatherDisplay:10.37,2013-10-13 16:55:00,
2013-10-13 13:00:00,68.5,61.4,30.17,NE,44,3.0,7.0,78,0.00,BKN,SCT,0.00,628.0,WeatherDisplay:10.37,2013-10-13 17:00:00,
2013-10-13 13:05:00,68.8,61.3,30.17,ENE,69,3.0,9.0,77,0.00,SCT,SCT,0.00,288.0,WeatherDisplay:10.37,2013-10-13 17:05:00,
2013-10-13 13:10:00,68.9,61.0,30.17,ENE,64,5.0,9.0,76,0.00,SCT,SCT,0.00,301.0,WeatherDisplay:10.37,2013-10-13 17:10:00,
2013-10-13 13:15:00,69.1,61.6,30.17,NE,49,3.0,9.0,77,0.00,BKN,SCT,0.00,410.0,WeatherDisplay:10.37,2013-10-13 17:15:00,
2013-10-13 13:20:00,69.4,61.5,30.17,NE,47,3.0,8.0,76,0.00,SCT,SCT,0.00,251.0,WeatherDisplay:10.37,2013-10-13 17:20:00,
2013-10-13 13:25:00,69.5,61.2,30.17,NE,44,3.0,7.0,75,0.00,BKN,SCT,0.00,181.0,WeatherDisplay:10.37,2013-10-13 17:25:00,
2013-10-13 13:30:00,69.4,60.8,30.17,NE,39,3.0,8.0,74,0.00,BKN,SCT,0.00,276.0,WeatherDisplay:10.37,2013-10-13 17:30:00,
2013-10-13 13:35:00,69.3,61.0,30.17,NE,44,5.0,9.0,75,0.00,BKN,SCT,0.00,390.0,WeatherDisplay:10.37,2013-10-13 17:35:00,
2013-10-13 13:40:00,69.4,61.2,30.16,NE,51,5.0,10.0,75,0.00,SCT,SCT,0.00,480.0,WeatherDisplay:10.37,2013-10-13 17:40:00,
2013-10-13 13:45:00,69.7,61.0,30.16,NE,42,6.0,12.0,74,0.00,SCT,SCT,0.00,441.0,WeatherDisplay:10.37,2013-10-13 17:45:00,
2013-10-13 13:50:00,69.7,61.0,30.16,NE,44,7.0,10.0,74,0.00,SCT,SCT,0.00,415.0,WeatherDisplay:10.37,2013-10-13 17:50:00,
2013-10-13 13:55:00,69.8,61.2,30.16,NE,46,5.0,9.0,74,0.00,SCT,SCT,0.00,367.0,WeatherDisplay:10.37,2013-10-13 17:55:00,
2013-10-13 14:00:00,69.9,60.8,30.16,NE,37,5.0,8.0,73,0.00,SCT,SCT,0.00,336.0,WeatherDisplay:10.37,2013-10-13 18:00:00,
2013-10-13 14:05:00,69.9,60.8,30.16,NE,44,6.0,9.0,73,0.00,BKN,SCT,0.00,253.0,WeatherDisplay:10.37,2013-10-13 18:05:00,
2013-10-13 14:10:00,69.7,60.6,30.16,NE,48,5.0,10.0,73,0.00,BKN,SCT,0.00,213.0,WeatherDisplay:10.37,2013-10-13 18:10:00,
2013-10-13 14:15:00,69.4,60.8,30.16,NE,41,1.0,10.0,74,0.00,BKN,SCT,0.00,225.0,WeatherDisplay:10.37,2013-10-13 18:15:00,
2013-10-13 14:25:00,69.1,61.2,30.15,NE,44,2.0,7.0,76,0.00,BKN,SCT,0.00,274.0,WeatherDisplay:10.37,2013-10-13 18:25:00,
2013-10-13 14:30:00,69.0,61.1,30.15,NE,41,2.0,7.0,76,0.00,BKN,SCT,0.00,250.0,WeatherDisplay:10.37,2013-10-13 18:30:00,
2013-10-13 14:35:00,69.0,61.1,30.15,ENE,61,3.0,12.0,76,0.00,BKN,SCT,0.00,297.0,WeatherDisplay:10.37,2013-10-13 18:35:00,
2013-10-13 14:45:00,68.9,61.0,30.15,NE,47,0.0,5.0,76,0.00,BKN,SCT,0.00,374.0,WeatherDisplay:10.37,2013-10-13 18:45:00,
2013-10-13 14:50:00,69.0,61.1,30.15,ENE,57,2.0,5.0,76,0.00,SCT,SCT,0.00,406.0,WeatherDisplay:10.37,2013-10-13 18:50:00,
2013-10-13 14:55:00,69.1,61.2,30.15,ENE,59,3.0,7.0,76,0.00,SCT,SCT,0.00,434.0,WeatherDisplay:10.37,2013-10-13 18:55:00,
2013-10-13 15:00:00,69.4,61.5,30.15,NE,55,1.0,6.0,76,0.00,SCT,SCT,0.00,406.0,WeatherDisplay:10.37,2013-10-13 19:00:00,
2013-10-13 15:05:00,69.7,61.4,30.15,NE,45,2.0,8.0,75,0.00,SCT,SCT,0.00,297.0,WeatherDisplay:10.37,2013-10-13 19:05:00,
2013-10-13 15:10:00,69.9,61.2,30.15,NE,45,3.0,8.0,74,0.00,SCT,SCT,0.00,229.0,WeatherDisplay:10.37,2013-10-13 19:10:00,
2013-10-13 15:15:00,69.9,61.2,30.15,NE,44,3.0,9.0,74,0.00,BKN,SCT,0.00,211.0,WeatherDisplay:10.37,2013-10-13 19:15:00,
2013-10-13 15:20:00,69.9,61.2,30.15,NNE,31,5.0,8.0,74,0.00,BKN,SCT,0.00,162.0,WeatherDisplay:10.37,2013-10-13 19:20:00,
2013-10-13 15:25:00,69.6,60.9,30.15,NNE,30,3.0,9.0,74,0.00,BKN,SCT,0.00,193.0,WeatherDisplay:10.37,2013-10-13 19:25:00,
2013-10-13 15:30:00,69.4,61.2,30.15,NNE,22,3.0,7.0,75,0.00,BKN,SCT,0.00,183.0,WeatherDisplay:10.37,2013-10-13 19:30:00,
2013-10-13 15:35:00,69.4,61.1,30.15,NNE,18,2.0,6.0,75,0.00,BKN,SCT,0.00,209.0,WeatherDisplay:10.37,2013-10-13 19:35:00,
2013-10-13 15:40:00,69.4,61.1,30.15,NNE,22,2.0,6.0,75,0.00,BKN,SCT,0.00,190.0,WeatherDisplay:10.37,2013-10-13 19:40:00,
2013-10-13 15:45:00,69.4,61.1,30.15,NNE,21,3.0,6.0,75,0.00,BKN,SCT,0.00,153.0,WeatherDisplay:10.37,2013-10-13 19:45:00,
2013-10-13 15:50:00,69.3,61.4,30.15,NNE,27,3.0,6.0,76,0.00,BKN,SCT,0.00,204.0,WeatherDisplay:10.37,2013-10-13 19:50:00,
2013-10-13 15:55:00,69.3,61.0,30.15,NE,47,2.0,8.0,75,0.00,BKN,SCT,0.00,220.0,WeatherDisplay:10.37,2013-10-13 19:55:00,
2013-10-13 16:00:00,69.2,60.9,30.15,NE,42,3.0,8.0,75,0.00,SCT,SCT,0.00,250.0,WeatherDisplay:10.37,2013-10-13 20:00:00,
2013-10-13 16:05:00,69.2,60.9,30.15,NE,38,5.0,9.0,75,0.00,SCT,SCT,0.00,232.0,WeatherDisplay:10.37,2013-10-13 20:05:00,
2013-10-13 16:10:00,69.2,61.3,30.15,NE,54,1.0,8.0,76,0.00,SCT,SCT,0.00,197.0,WeatherDisplay:10.37,2013-10-13 20:10:00,
2013-10-13 16:15:00,69.2,61.3,30.14,ENE,58,5.0,8.0,76,0.00,SCT,SCT,0.00,241.0,WeatherDisplay:10.37,2013-10-13 20:15:00,
2013-10-13 16:20:00,69.2,61.7,30.15,ENE,59,2.0,6.0,77,0.00,SCT,SCT,0.00,260.0,WeatherDisplay:10.37,2013-10-13 20:20:00,
2013-10-13 16:30:00,69.4,61.9,30.15,ENE,58,2.0,7.0,77,0.00,SCT,SCT,0.00,258.0,WeatherDisplay:10.37,2013-10-13 20:30:00,
2013-10-13 16:40:00,69.5,61.6,30.14,ENE,60,3.0,7.0,76,0.00,SCT,SCT,0.00,236.0,WeatherDisplay:10.37,2013-10-13 20:40:00,
2013-10-13 16:45:00,69.6,61.7,30.14,ENE,64,5.0,7.0,76,0.00,SCT,SCT,0.00,255.0,WeatherDisplay:10.37,2013-10-13 20:45:00,
2013-10-13 16:50:00,69.7,62.1,30.14,ENE,68,3.0,5.0,77,0.00,SCT,SCT,0.00,221.0,WeatherDisplay:10.37,2013-10-13 20:50:00,
2013-10-13 16:55:00,69.6,61.7,30.14,ENE,64,5.0,9.0,76,0.00,SCT,SCT,0.00,183.0,WeatherDisplay:10.37,2013-10-13 20:55:00,
2013-10-13 17:00:00,69.6,61.7,30.14,ENE,58,5.0,9.0,76,0.00,SCT,SCT,0.00,197.0,WeatherDisplay:10.37,2013-10-13 21:00:00,
2013-10-13 17:05:00,69.7,61.8,30.14,ENE,66,6.0,9.0,76,0.00,SCT,SCT,0.00,185.0,WeatherDisplay:10.37,2013-10-13 21:05:00,
2013-10-13 17:10:00,69.6,61.7,30.14,ENE,68,2.0,9.0,76,0.00,SCT,SCT,0.00,160.0,WeatherDisplay:10.37,2013-10-13 21:10:00,
2013-10-13 17:15:00,69.6,61.7,30.14,ENE,66,3.0,5.0,76,0.00,SCT,SCT,0.00,179.0,WeatherDisplay:10.37,2013-10-13 21:15:00,
2013-10-13 17:20:00,69.5,61.6,30.14,ENE,64,2.0,5.0,76,0.00,SCT,SCT,0.00,120.0,WeatherDisplay:10.37,2013-10-13 21:20:00,
2013-10-13 17:25:00,69.5,61.6,30.15,ENE,64,1.0,5.0,76,0.00,SCT,SCT,0.00,107.0,WeatherDisplay:10.37,2013-10-13 21:25:00,
2013-10-13 17:30:00,69.4,61.5,30.15,ENE,67,2.0,8.0,76,0.00,SCT,SCT,0.00,113.0,WeatherDisplay:10.37,2013-10-13 21:30:00,
2013-10-13 17:35:00,69.3,61.8,30.15,ENE,69,2.0,5.0,77,0.00,SCT,SCT,0.00,98.0,WeatherDisplay:10.37,2013-10-13 21:35:00,
2013-10-13 17:45:00,69.1,61.6,30.15,NE,56,2.0,6.0,77,0.00,SCT,SCT,0.00,74.0,WeatherDisplay:10.37,2013-10-13 21:45:00,
2013-10-13 17:50:00,69.0,61.5,30.14,NE,56,3.0,7.0,77,0.00,SCT,SCT,0.00,74.0,WeatherDisplay:10.37,2013-10-13 21:50:00,
2013-10-13 17:55:00,68.8,61.3,30.15,NE,56,3.0,7.0,77,0.00,SCT,SCT,0.00,72.0,WeatherDisplay:10.37,2013-10-13 21:55:00,
2013-10-13 18:00:00,68.7,61.2,30.15,NE,55,3.0,6.0,77,0.00,SCT,SCT,0.00,63.0,WeatherDisplay:10.37,2013-10-13 22:00:00,
2013-10-13 18:05:00,68.6,61.5,30.15,NE,53,3.0,6.0,78,0.00,CLR,SCT,0.00,148.0,WeatherDisplay:10.37,2013-10-13 22:05:00,
2013-10-13 18:10:00,68.6,61.5,30.15,NE,50,2.0,6.0,78,0.00,BKN,SCT,0.00,47.0,WeatherDisplay:10.37,2013-10-13 22:10:00,
2013-10-13 18:15:00,68.5,61.7,30.16,NE,49,2.0,5.0,79,0.00,BKN,SCT,0.00,32.0,WeatherDisplay:10.37,2013-10-13 22:15:00,
2013-10-13 18:25:00,68.2,61.4,30.16,NE,56,3.0,8.0,79,0.00,BKN,SCT,0.00,23.0,WeatherDisplay:10.37,2013-10-13 22:25:00,
2013-10-13 18:30:00,68.0,61.2,30.16,ENE,61,3.0,8.0,79,0.00,CLR,SCT,0.00,60.0,WeatherDisplay:10.37,2013-10-13 22:30:00,
2013-10-13 18:35:00,67.7,61.3,30.16,ENE,64,3.0,8.0,80,0.00,CLR,SCT,0.00,19.0,WeatherDisplay:10.37,2013-10-13 22:35:00,
2013-10-13 18:40:00,67.5,61.2,30.16,ENE,66,1.0,5.0,80,0.00,CLR,SCT,0.00,7.0,WeatherDisplay:10.37,2013-10-13 22:40:00,
2013-10-13 18:50:00,67.1,61.1,30.17,ENE,66,5.0,9.0,81,0.00,CLR,SCT,0.00,0.0,WeatherDisplay:10.37,2013-10-13 22:50:00,
2013-10-13 18:55:00,66.9,60.9,30.17,ENE,57,6.0,9.0,81,0.00,CLR,SCT,0.00,0.0,WeatherDisplay:10.37,2013-10-13 22:55:00,
2013-10-13 19:00:00,66.6,60.9,30.17,NE,44,2.0,7.0,82,0.00,CLR,SCT,0.00,0.0,WeatherDisplay:10.37,2013-10-13 23:00:00,
2013-10-13 19:05:00,66.4,60.8,30.17,NE,35,1.0,5.0,82,0.00,CLR,SCT,0.00,0.0,WeatherDisplay:10.37,2013-10-13 23:05:00,
2013-10-13 19:10:00,66.2,60.5,30.17,NE,36,2.0,6.0,82,0.00,CLR,SCT,0.00,0.0,WeatherDisplay:10.37,2013-10-13 23:10:00,
2013-10-13 19:15:00,66.1,60.8,30.17,NE,37,1.0,5.0,83,0.00,CLR,SCT,0.00,0.0,WeatherDisplay:10.37,2013-10-13 23:15:00,
2013-10-13 19:20:00,65.9,60.6,30.17,NE,37,0.0,2.0,83,0.00,CLR,SCT,0.00,0.0,WeatherDisplay:10.37,2013-10-13 23:20:00,
2013-10-13 19:25:00,65.8,60.5,30.17,NE,38,1.0,5.0,83,0.00,CLR,SCT,0.00,0.0,WeatherDisplay:10.37,2013-10-13 23:25:00,
2013-10-13 19:35:00,65.4,60.5,30.18,NE,41,3.0,6.0,84,0.00,CLR,SCT,0.00,0.0,WeatherDisplay:10.37,2013-10-13 23:35:00,
2013-10-13 19:40:00,65.3,60.7,30.18,NE,46,2.0,6.0,85,0.00,CLR,SCT,0.00,0.0,WeatherDisplay:10.37,2013-10-13 23:40:00,
2013-10-13 19:45:00,65.2,60.5,30.18,NE,47,1.0,6.0,85,0.00,CLR,SCT,0.00,0.0,WeatherDisplay:10.37,2013-10-13 23:45:00,
2013-10-13 19:50:00,65.0,60.4,30.18,NE,46,1.0,5.0,85,0.00,CLR,SCT,0.00,0.0,WeatherDisplay:10.37,2013-10-13 23:50:00,
2013-10-13 19:55:00,65.0,60.7,30.18,NE,46,2.0,5.0,86,0.00,CLR,SCT,0.00,0.0,WeatherDisplay:10.37,2013-10-13 23:55:00,
2013-10-13 20:00:00,64.9,60.6,30.18,NE,46,1.0,4.0,86,0.00,CLR,SCT,0.00,0.0,WeatherDisplay:10.37,2013-10-14 00:00:00,
2013-10-13 20:05:00,64.8,60.5,30.19,NE,36,6.0,9.0,86,0.00,CLR,SCT,0.00,0.0,WeatherDisplay:10.37,2013-10-14 00:05:00,
2013-10-13 20:10:00,64.7,60.4,30.19,NNE,28,2.0,5.0,86,0.00,CLR,SCT,0.00,0.0,WeatherDisplay:10.37,2013-10-14 00:10:00,
2013-10-13 20:20:00,64.5,60.2,30.19,NE,34,5.0,8.0,86,0.00,CLR,SCT,0.00,0.0,WeatherDisplay:10.37,2013-10-14 00:20:00,
2013-10-13 20:25:00,64.4,60.1,30.19,NE,47,3.0,10.0,86,0.00,CLR,SCT,0.00,0.0,WeatherDisplay:10.37,2013-10-14 00:25:00,
2013-10-13 20:30:00,64.3,60.0,30.19,NE,51,3.0,9.0,86,0.00,CLR,SCT,0.00,0.0,WeatherDisplay:10.37,2013-10-14 00:30:00,
2013-10-13 20:35:00,64.3,60.0,30.19,NE,49,3.0,6.0,86,0.00,CLR,SCT,0.00,0.0,WeatherDisplay:10.37,2013-10-14 00:35:00,
2013-10-13 20:40:00,64.2,60.2,30.19,NE,44,3.0,8.0,87,0.00,CLR,SCT,0.00,0.0,WeatherDisplay:10.37,2013-10-14 00:40:00,
2013-10-13 20:45:00,64.1,60.2,30.19,NE,42,2.0,7.0,87,0.00,CLR,SCT,0.00,0.0,WeatherDisplay:10.37,2013-10-14 00:45:00,
2013-10-13 20:50:00,64.0,60.1,30.19,NE,46,2.0,7.0,87,0.00,CLR,SCT,0.00,0.0,WeatherDisplay:10.37,2013-10-14 00:50:00,
2013-10-13 20:55:00,63.9,60.0,30.19,NE,44,5.0,9.0,87,0.00,CLR,SCT,0.00,0.0,WeatherDisplay:10.37,2013-10-14 00:55:00,
2013-10-13 21:00:00,63.8,59.8,30.19,NE,39,2.0,5.0,87,0.00,CLR,SCT,0.00,0.0,WeatherDisplay:10.37,2013-10-14 01:00:00,
2013-10-13 21:05:00,63.7,59.7,30.19,NE,35,2.0,5.0,87,0.00,CLR,SCT,0.00,0.0,WeatherDisplay:10.37,2013-10-14 01:05:00,
2013-10-13 21:10:00,63.6,59.7,30.19,NE,36,2.0,6.0,87,0.00,CLR,SCT,0.00,0.0,WeatherDisplay:10.37,2013-10-14 01:10:00,
2013-10-13 21:15:00,63.6,59.7,30.19,NE,36,1.0,4.0,87,0.00,CLR,SCT,0.00,0.0,WeatherDisplay:10.37,2013-10-14 01:15:00,
2013-10-13 21:20:00,63.5,59.9,30.19,NE,36,1.0,4.0,88,0.00,CLR,SCT,0.00,0.0,WeatherDisplay:10.37,2013-10-14 01:20:00,
2013-10-13 21:25:00,63.5,59.9,30.19,NE,36,1.0,4.0,88,0.00,CLR,SCT,0.00,0.0,WeatherDisplay:10.37,2013-10-14 01:25:00,
2013-10-13 21:30:00,63.4,59.8,30.19,NE,36,2.0,4.0,88,0.00,CLR,SCT,0.00,0.0,WeatherDisplay:10.37,2013-10-14 01:30:00,
2013-10-13 21:35:00,63.4,59.8,30.19,NE,36,2.0,5.0,88,0.00,CLR,SCT,0.00,0.0,WeatherDisplay:10.37,2013-10-14 01:35:00,
2013-10-13 21:40:00,63.4,59.8,30.19,NE,36,0.0,6.0,88,0.00,CLR,SCT,0.00,0.0,WeatherDisplay:10.37,2013-10-14 01:40:00,
2013-10-13 21:45:00,63.3,59.7,30.19,NE,36,1.0,4.0,88,0.00,CLR,SCT,0.00,0.0,WeatherDisplay:10.37,2013-10-14 01:45:00,
2013-10-13 21:50:00,63.3,59.7,30.20,NE,36,2.0,5.0,88,0.00,CLR,SCT,0.00,0.0,WeatherDisplay:10.37,2013-10-14 01:50:00,
2013-10-13 21:55:00,63.2,59.6,30.20,NE,40,3.0,6.0,88,0.00,CLR,SCT,0.00,0.0,WeatherDisplay:10.37,2013-10-14 01:55:00,
2013-10-13 22:05:00,63.2,59.6,30.20,NE,54,5.0,12.0,88,0.00,CLR,SCT,0.00,0.0,WeatherDisplay:10.37,2013-10-14 02:05:00,
2013-10-13 22:10:00,63.2,59.2,30.20,NE,51,3.0,8.0,87,0.00,CLR,SCT,0.00,0.0,WeatherDisplay:10.37,2013-10-14 02:10:00,
2013-10-13 22:15:00,63.2,59.3,30.20,NE,49,2.0,6.0,87,0.00,CLR,SCT,0.00,0.0,WeatherDisplay:10.37,2013-10-14 02:15:00,
2013-10-13 22:20:00,63.2,59.3,30.20,NE,44,6.0,12.0,87,0.00,CLR,SCT,0.00,0.0,WeatherDisplay:10.37,2013-10-14 02:20:00,
2013-10-13 22:25:00,63.2,59.3,30.21,NE,51,7.0,10.0,87,0.00,CLR,SCT,0.00,0.0,WeatherDisplay:10.37,2013-10-14 02:25:00,
2013-10-13 22:30:00,63.2,59.3,30.21,NE,53,3.0,8.0,87,0.00,CLR,SCT,0.00,0.0,WeatherDisplay:10.37,2013-10-14 02:30:00,
2013-10-13 22:35:00,63.2,59.3,30.21,NE,49,3.0,6.0,87,0.00,CLR,SCT,0.00,0.0,WeatherDisplay:10.37,2013-10-14 02:35:00,
2013-10-13 22:40:00,63.2,59.3,30.21,NE,52,6.0,9.0,87,0.00,CLR,SCT,0.00,0.0,WeatherDisplay:10.37,2013-10-14 02:40:00,
2013-10-13 22:45:00,63.1,59.2,30.21,NE,51,5.0,9.0,87,0.00,CLR,SCT,0.00,0.0,WeatherDisplay:10.37,2013-10-14 02:45:00,
2013-10-13 22:50:00,63.1,59.2,30.21,NE,48,6.0,12.0,87,0.00,CLR,SCT,0.00,0.0,WeatherDisplay:10.37,2013-10-14 02:50:00,
2013-10-13 22:55:00,63.1,58.8,30.21,NE,50,6.0,12.0,86,0.00,CLR,SCT,0.00,0.0,WeatherDisplay:10.37,2013-10-14 02:55:00,
2013-10-13 23:00:00,63.0,58.7,30.21,NE,54,6.0,9.0,86,0.00,CLR,SCT,0.00,0.0,WeatherDisplay:10.37,2013-10-14 03:00:00,
2013-10-13 23:05:00,62.9,58.6,30.21,NE,52,3.0,10.0,86,0.00,CLR,SCT,0.00,0.0,WeatherDisplay:10.37,2013-10-14 03:05:00,
2013-10-13 23:10:00,62.9,58.6,30.21,NE,46,6.0,12.0,86,0.00,CLR,SCT,0.00,0.0,WeatherDisplay:10.37,2013-10-14 03:10:00,
2013-10-13 23:15:00,62.9,58.6,30.21,NE,48,3.0,6.0,86,0.00,CLR,SCT,0.00,0.0,WeatherDisplay:10.37,2013-10-14 03:15:00,
2013-10-13 23:20:00,62.8,58.5,30.21,NE,42,3.0,8.0,86,0.00,CLR,SCT,0.00,0.0,WeatherDisplay:10.37,2013-10-14 03:20:00,
2013-10-13 23:25:00,62.7,58.5,30.21,NE,40,3.0,9.0,86,0.00,CLR,SCT,0.00,0.0,WeatherDisplay:10.37,2013-10-14 03:25:00,
2013-10-13 23:30:00,62.6,58.4,30.21,NE,50,3.0,10.0,86,0.00,CLR,SCT,0.00,0.0,WeatherDisplay:10.37,2013-10-14 03:30:00,
2013-10-13 23:35:00,62.5,58.3,30.21,NE,51,3.0,8.0,86,0.00,CLR,SCT,0.00,0.0,WeatherDisplay:10.37,2013-10-14 03:35:00,
2013-10-13 23:40:00,62.5,58.3,30.21,NE,38,2.0,12.0,86,0.00,CLR,SCT,0.00,0.0,WeatherDisplay:10.37,2013-10-14 03:40:00,
2013-10-13 23:45:00,62.4,58.2,30.21,NE,36,1.0,6.0,86,0.00,CLR,SCT,0.00,0.0,WeatherDisplay:10.37,2013-10-14 03:45:00,
2013-10-13 23:50:00,62.4,58.2,30.21,NE,39,3.0,5.0,86,0.00,CLR,SCT,0.00,0.0,WeatherDisplay:10.37,2013-10-14 03:50:00,
2013-10-13 23:55:00,62.4,58.1,30.21,NE,41,2.0,5.0,86,0.00,CLR,SCT,0.00,0.0,WeatherDisplay:10.37,2013-10-14 03:55:00,